{"data":{"norad_id":68611,"epoch":"2026-09-19T19:14:12.328512Z","epoch_age_seconds":104252,"freshness":"FRESH","line1":"1 68611U 26073K   26262.80153158  .00012386  00000+0  38534-3 0  9994","line2":"2 68611  97.2853 100.8315 0001765  88.1112 272.0333 15.33444726 25631","mean_motion":15.33444726,"eccentricity":0.0001765,"inclination_deg":97.2853,"raan_deg":100.8315,"arg_perigee_deg":88.1112,"mean_anomaly_deg":272.0333,"bstar":0.00038534,"rev_number":2563,"period_min":93.906221436246,"perigee_km":464.33608001479,"apogee_km":466.75189940416,"semimajor_km":6843.6809897095,"source":"CELESTRAK","updated_at":"2026-09-20T09:00:43.943757Z"}}